Starlink 34020

operational
NORAD ID: 63939 Int'l Des: 2025-098 Owner: SPXS Country: US Constellation: starlink
LEOCIRCULAR

About Starlink 34020

Description loading...

Live Position

Loading 3D Globe...

Upcoming Passes

Altitude History

Altitude vs Time

uPlot chart will show altitude changes over time

Two-Line Element Set

1 63939U 25098P 26063.60673982 .00009651 00000-0 81570-3 0 9997
2 63939 69.9996 287.1673 0004120 278.0841 81.9851 14.98318993 45793
Epoch: Mar 4, 2026 • Age: 20 hours

Current Status

Altitude 584.3 km
Velocity 7.57 km/s
Sub-Earth Point 60.70°N, 130.83°W
Launch Date May 13, 2025
Age 0.8 years
Type internet

Technical Details

Classification Payload
Mass 575.00 kg
Dry Mass 530.00 kg
Total Mass 575.00 kg
Length 0.30 m
Diameter 4.10 m
Span 29.00 m
Shape Box + pan
Manufacturer SPXS
Bus Type Starlink V2MO
Phase Status In Orbit
Owner/State SPXS/US

Large Constellations

Loading constellations...